Retour au catalogue

COSMOS 1285 DEB

LostHEO
NORAD 33524·DEBRIS·🇷🇺 Russia

Lancé Aug 4, 1981 depuis Plesetsk Cosmodrome

Loading…

Prochains Passages (prochaines 24 heures)

TLE

PériméSource: Space-Track

Époque: Jan 14, 2024, 15:26 UTC

1 33524U 81071Z   24014.64325855 -.00000519  00000-0  00000+0 0  9998
2 33524  68.9974 124.3350 6228075 359.8168  15.7706  1.98320283758170

Suivez COSMOS 1285 DEB en temps réel avec AllMySat

Download on the App Store